When you browse on this site, cookies collect data to enhance your experience and personalize the content and advertising you see.
Visit our Privacy Policy to learn more. By continuing to use the site, you agree to this use of cookies and data.
  • In Latvia
  • List of Countries
  • For 7 days
  • Water Temperature
  • Satellite Maps
  • Weather Map
  • Weather Widgets
  • user-avatar
    Login

    Hourly Weather Maczugi

    Today, 19 December, Wednesday

    Time Temperature Precipitation Wind Pressure Humidity
    00:00 -6°C° 0 mm 1 mps 754 mmHg 94%
    01:00 -6°C° 0 mm 1 mps 754 mmHg 94%
    02:00 -6°C° 0 mm 1 mps 754 mmHg 94%
    03:00 -7°C° 0 mm 2 mps 754 mmHg 94%
    04:00 -8°C° 0 mm 2 mps 754 mmHg 95%
    05:00 -8°C° 0 mm 2 mps 754 mmHg 95%
    06:00 -8°C° 0 mm 2 mps 754 mmHg 95%
    07:00 -8°C° 0 mm 2 mps 754 mmHg 94%
    08:00 -9°C° 0 mm 3 mps 754 mmHg 94%
    09:00 -8°C° 0 mm 3 mps 754 mmHg 93%
    10:00 -8°C° 0 mm 3 mps 754 mmHg 91%
    11:00 -7°C° 0 mm 3 mps 754 mmHg 89%
    12:00 -8°C° 0 mm 4 mps 753 mmHg 88%
    13:00 -7°C° 0 mm 4 mps 753 mmHg 87%
    14:00 -5°C° 0 mm 4 mps 753 mmHg 86%
    15:00 -7°C° 0 mm 4 mps 752 mmHg 88%
    16:00 -7°C° 0 mm 4 mps 752 mmHg 90%
    17:00 -8°C° 0 mm 4 mps 752 mmHg 92%
    18:00 -8°C° 0 mm 4 mps 752 mmHg 92%
    19:00 -8°C° 0 mm 4 mps 752 mmHg 92%
    20:00 -8°C° 0 mm 4 mps 752 mmHg 93%
    21:00 -8°C° 0 mm 4 mps 751 mmHg 92%
    22:00 -8°C° 0 mm 4 mps 751 mmHg 91%
    23:00 -9°C° 0 mm 4 mps 751 mmHg 91%

    Tomorrow, 20 December, Thursday

    Time Temperature Precipitation Wind Pressure Humidity
    00:00 -9°C° 0 mm 4 mps 751 mmHg 90%
    01:00 -8°C° 0 mm 3 mps 751 mmHg 90%
    02:00 -8°C° 0 mm 3 mps 750 mmHg 89%
    03:00 -7°C° 0 mm 3 mps 750 mmHg 88%
    04:00 -7°C° 0 mm 3 mps 750 mmHg 87%
    05:00 -7°C° 0 mm 3 mps 750 mmHg 86%
    06:00 -7°C° 0 mm 3 mps 750 mmHg 86%
    07:00 -7°C° 0 mm 3 mps 749 mmHg 85%
    08:00 -6°C° 0 mm 3 mps 749 mmHg 84%
    09:00 -6°C° 0 mm 3 mps 749 mmHg 82%
    10:00 -5°C° 0 mm 3 mps 749 mmHg 81%
    11:00 -4°C° 0 mm 4 mps 749 mmHg 79%
    12:00 -2°C° 0 mm 3 mps 749 mmHg 80%
    13:00 -2°C° 0 mm 3 mps 749 mmHg 80%
    14:00 -1°C° 0 mm 3 mps 749 mmHg 80%
    15:00 -2°C° 0 mm 3 mps 749 mmHg 82%
    16:00 -2°C° 0 mm 3 mps 749 mmHg 84%
    17:00 -2°C° 0 mm 3 mps 748 mmHg 87%
    18:00 -2°C° 0.1 mm 3 mps 749 mmHg 88%
    19:00 -2°C° 0.1 mm 3 mps 749 mmHg 89%
    20:00 -2°C° 0.1 mm 3 mps 749 mmHg 90%
    21:00 -2°C° 0.1 mm 3 mps 749 mmHg 90%
    22:00 -2°C° 0.1 mm 3 mps 749 mmHg 91%
    23:00 -2°C° 0.1 mm 3 mps 749 mmHg 91%

    Day after tomorrow, 21 December, Friday

    Time Temperature Precipitation Wind Pressure Humidity
    00:00 -2°C° 0.2 mm 3 mps 749 mmHg 91%
    01:00 -2°C° 0.2 mm 3 mps 749 mmHg 90%
    02:00 -2°C° 0.2 mm 4 mps 749 mmHg 90%
    03:00 -2°C° 0.1 mm 4 mps 748 mmHg 90%
    04:00 -2°C° 0.1 mm 4 mps 748 mmHg 89%
    05:00 -2°C° 0.1 mm 4 mps 748 mmHg 89%
    06:00 -2°C° 0 mm 4 mps 748 mmHg 89%
    07:00 -2°C° 0 mm 4 mps 748 mmHg 88%
    08:00 -2°C° 0 mm 4 mps 748 mmHg 88%
    09:00 -2°C° 0 mm 4 mps 748 mmHg 87%
    10:00 -1°C° 0 mm 4 mps 748 mmHg 85%
    11:00 -1°C° 0 mm 5 mps 748 mmHg 84%
    12:00 0°C° 0.1 mm 5 mps 747 mmHg 84%
    13:00 0°C° 0.1 mm 5 mps 747 mmHg 85%
    14:00 0°C° 0.1 mm 5 mps 746 mmHg 86%
    15:00 0°C° 0.3 mm 5 mps 746 mmHg 85%
    16:00 0°C° 0.3 mm 5 mps 745 mmHg 85%
    17:00 -1°C° 0.3 mm 6 mps 745 mmHg 84%
    18:00 -1°C° 0.3 mm 6 mps 744 mmHg 84%
    19:00 -1°C° 0.3 mm 6 mps 744 mmHg 84%
    20:00 -1°C° 0.3 mm 6 mps 743 mmHg 83%
    21:00 -1°C° 0.3 mm 6 mps 742 mmHg 84%
    22:00 -1°C° 0.3 mm 6 mps 741 mmHg 84%
    23:00 -1°C° 0.3 mm 6 mps 740 mmHg 84%

    22 December, Saturday

    Time Temperature Precipitation Wind Pressure Humidity
    00:00 -1°C° 0.4 mm 7 mps 740 mmHg 85%
    01:00 -1°C° 0.4 mm 7 mps 739 mmHg 86%
    02:00 0°C° 0.4 mm 7 mps 739 mmHg 87%
    03:00 0°C° 0.5 mm 7 mps 738 mmHg 88%
    04:00 0°C° 0.5 mm 7 mps 738 mmHg 88%
    05:00 0°C° 0.5 mm 7 mps 738 mmHg 89%
    06:00 0°C° 0.1 mm 7 mps 738 mmHg 89%
    07:00 +2°C° 0.1 mm 7 mps 738 mmHg 89%
    08:00 +2°C° 0.1 mm 7 mps 738 mmHg 89%
    09:00 +2°C° 0 mm 6 mps 738 mmHg 89%
    10:00 +2°C° 0 mm 6 mps 738 mmHg 90%
    11:00 +2°C° 0 mm 6 mps 738 mmHg 90%
    12:00 +2°C° 0.1 mm 6 mps 738 mmHg 90%
    13:00 +3°C° 0.1 mm 6 mps 738 mmHg 90%
    14:00 +3°C° 0.1 mm 6 mps 737 mmHg 90%
    15:00 +3°C° 0.1 mm 6 mps 737 mmHg 90%
    16:00 +2°C° 0.1 mm 6 mps 737 mmHg 90%
    17:00 +2°C° 0.1 mm 6 mps 737 mmHg 90%
    18:00 +2°C° 0.3 mm 6 mps 737 mmHg 90%
    19:00 +2°C° 0.3 mm 6 mps 737 mmHg 90%
    20:00 +2°C° 0.3 mm 6 mps 737 mmHg 90%
    21:00 +3°C° 0.5 mm 6 mps 737 mmHg 90%
    22:00 +3°C° 0.5 mm 6 mps 737 mmHg 90%
    23:00 +3°C° 0.5 mm 6 mps 738 mmHg 90%

    23 December, Sunday

    Time Temperature Precipitation Wind Pressure Humidity
    00:00 +3°C° 0.6 mm 7 mps 738 mmHg 89%
    01:00 +2°C° 0.6 mm 7 mps 738 mmHg 89%
    02:00 +2°C° 0.6 mm 7 mps 738 mmHg 88%
    03:00 +2°C° 0.2 mm 7 mps 738 mmHg 87%
    04:00 +2°C° 0.2 mm 7 mps 738 mmHg 85%
    05:00 +2°C° 0.2 mm 7 mps 739 mmHg 84%
    06:00 +2°C° 0.1 mm 7 mps 739 mmHg 84%
    07:00 +2°C° 0.1 mm 7 mps 739 mmHg 84%
    08:00 +2°C° 0.1 mm 7 mps 739 mmHg 84%
    09:00 +2°C° 0.1 mm 7 mps 739 mmHg 85%
    10:00 +1°C° 0.1 mm 8 mps 740 mmHg 85%
    11:00 +1°C° 0.1 mm 8 mps 740 mmHg 85%
    12:00 +2°C° 0.2 mm 7 mps 740 mmHg 85%
    13:00 +2°C° 0.2 mm 7 mps 741 mmHg 85%
    14:00 +2°C° 0.2 mm 6 mps 741 mmHg 86%
    15:00 +2°C° 0.2 mm 6 mps 741 mmHg 87%
    16:00 +2°C° 0.2 mm 5 mps 742 mmHg 89%
    17:00 +1°C° 0.2 mm 4 mps 742 mmHg 90%
    18:00 +1°C° 0.4 mm 4 mps 742 mmHg 90%
    19:00 +1°C° 0.4 mm 4 mps 742 mmHg 90%
    20:00 +1°C° 0.4 mm 4 mps 742 mmHg 90%
    21:00 +1°C° 0.2 mm 4 mps 743 mmHg 90%
    22:00 +1°C° 0.2 mm 4 mps 743 mmHg 90%
    23:00 +1°C° 0.2 mm 4 mps 743 mmHg 90%

    24 December, Monday

    Time Temperature Precipitation Wind Pressure Humidity
    00:00 +1°C° 0.4 mm 4 mps 743 mmHg 90%
    01:00 +1°C° 0.4 mm 5 mps 743 mmHg 90%
    02:00 +1°C° 0.4 mm 5 mps 743 mmHg 90%
    03:00 +1°C° 0.2 mm 4 mps 743 mmHg 90%
    04:00 +1°C° 0.2 mm 4 mps 743 mmHg 91%
    05:00 0°C° 0.2 mm 4 mps 743 mmHg 92%
    06:00 +1°C° 0.8 mm 3 mps 743 mmHg 92%
    07:00 +1°C° 0.8 mm 3 mps 743 mmHg 93%
    08:00 +1°C° 0.8 mm 3 mps 743 mmHg 93%
    09:00 0°C° 0.3 mm 3 mps 744 mmHg 92%
    10:00 0°C° 0.3 mm 3 mps 745 mmHg 90%
    11:00 -1°C° 0.3 mm 4 mps 746 mmHg 89%
    12:00 -1°C° 0.1 mm 4 mps 746 mmHg 87%
    13:00 -1°C° 0.1 mm 4 mps 747 mmHg 86%
    14:00 -1°C° 0.1 mm 5 mps 747 mmHg 85%
    15:00 -1°C° 0 mm 4 mps 747 mmHg 85%
    16:00 -2°C° 0 mm 4 mps 748 mmHg 85%
    17:00 -1°C° 0 mm 3 mps 748 mmHg 85%
    18:00 -1°C° 0 mm 3 mps 748 mmHg 86%
    19:00 -2°C° 0 mm 3 mps 748 mmHg 88%
    20:00 -2°C° 0 mm 3 mps 748 mmHg 89%
    21:00 -1°C° 0.2 mm 3 mps 748 mmHg 91%
    22:00 -1°C° 0.2 mm 3 mps 748 mmHg 92%
    23:00 -1°C° 0.2 mm 4 mps 748 mmHg 93%
    Show more